| time (UTC) | temp F | wind direction | speed knots | gust knots | rain 1hr in | rain 24hr in | rain mn in | humidity % | barometer mb |
| 20260506160842 | 53 | 213 | 0.9 | 1.7 | 0.00 | 0.00 | 0.00 | 99 | 1020.8 |
| 20260506160339 | 53 | 222 | 0.0 | 0.9 | 0.00 | 0.00 | 0.00 | 99 | 1020.7 |
| 20260506155837 | 52 | 216 | 0.9 | 4.3 | 0.00 | 0.00 | 0.00 | 99 | 1021.0 |
| 20260506155333 | 52 | 232 | 0.9 | 2.6 | 0.00 | 0.00 | 0.00 | 99 | 1020.9 |
| 20260506153450 | 53 | 233 | 0.0 | 0.9 | 0.00 | 0.00 | 0.00 | 99 | 1021.0 |
| 20260506152948 | 53 | 212 | 0.9 | 1.7 | 0.00 | 0.00 | 0.00 | 99 | 1021.1 |
| 20260506152445 | 53 | 209 | 0.0 | 2.6 | 0.00 | 0.00 | 0.00 | 98 | 1020.8 |
| 20260506151943 | 53 | 207 | 0.0 | 5.2 | 0.00 | 0.00 | 0.00 | 98 | 1021.0 |
| 20260506151440 | 53 | 216 | 0.0 | 0.9 | 0.00 | 0.00 | 0.00 | 99 | 1020.8 |
| 20260506150938 | 53 | 214 | 0.9 | 1.7 | 0.00 | 0.00 | 0.00 | 98 | 1020.6 |
| 20260506150433 | 53 | 212 | 0.0 | 0.0 | 0.00 | 0.00 | 0.00 | 98 | 1020.5 |
| 20260506145931 | 53 | 211 | 0.9 | 2.6 | 0.00 | 0.00 | 0.00 | 98 | 1020.5 |
| 20260506145427 | 53 | 212 | 0.0 | 0.0 | 0.00 | 0.00 | 0.00 | 98 | 1020.8 |
| 20260506144925 | 53 | 210 | 0.0 | 1.7 | 0.00 | 0.00 | 0.00 | 98 | 1020.9 |
| 20260506144421 | 53 | 214 | 0.0 | 1.7 | 0.00 | 0.00 | 0.00 | 98 | 1020.8 |
| 20260506143920 | 53 | 208 | 0.9 | 1.7 | 0.00 | 0.00 | 0.00 | 98 | 1020.8 |
| 20260506143416 | 53 | 216 | 0.9 | 0.9 | 0.00 | 0.00 | 0.00 | 97 | 1020.7 |
| 20260506142914 | 53 | 217 | 0.9 | 1.7 | 0.00 | 0.00 | 0.00 | 97 | 1020.7 |
| 20260506142412 | 53 | 219 | 0.0 | 0.9 | 0.00 | 0.00 | 0.00 | 97 | 1020.5 |
| 20260506141910 | 53 | 214 | 0.9 | 1.7 | 0.00 | 0.00 | 0.00 | 96 | 1020.5 |
| 20260506141408 | 53 | 216 | 0.0 | 0.9 | 0.00 | 0.00 | 0.00 | 96 | 1020.4 |
| 20260506140906 | 53 | 212 | 0.0 | 0.0 | 0.00 | 0.00 | 0.00 | 96 | 1020.3 |
| 20260506140402 | 53 | 212 | 0.0 | 0.9 | 0.00 | 0.00 | 0.00 | 95 | 1020.6 |
| 20260506135900 | 54 | 215 | 0.0 | 0.9 | 0.00 | 0.00 | 0.00 | 95 | 1020.4 |
| 20260506135356 | 54 | 224 | 1.7 | 1.7 | 0.00 | 0.00 | 0.00 | 94 | 1020.7 |
| 20260506134852 | 54 | 212 | 0.9 | 1.7 | 0.00 | 0.00 | 0.00 | 94 | 1020.6 |
| 20260506134349 | 54 | 213 | 0.9 | 2.6 | 0.00 | 0.00 | 0.00 | 94 | 1020.4 |
| 20260506133846 | 53 | 234 | 1.7 | 2.6 | 0.00 | 0.00 | 0.00 | 94 | 1020.4 |
| 20260506133342 | 53 | 214 | 0.0 | 0.0 | 0.00 | 0.00 | 0.00 | 94 | 1020.5 |
| 20260506132839 | 53 | 212 | 0.0 | 0.0 | 0.00 | 0.00 | 0.00 | 94 | 1020.3 |
| 20260506132336 | 53 | 210 | 0.9 | 1.7 | 0.00 | 0.00 | 0.00 | 94 | 1020.4 |
| 20260506131835 | 53 | 210 | 0.0 | 1.7 | 0.00 | 0.00 | 0.00 | 94 | 1020.4 |
| 20260506131330 | 53 | 210 | 0.0 | 0.0 | 0.00 | 0.00 | 0.00 | 94 | 1020.0 |
| 20260506130828 | 53 | 210 | 0.0 | 0.0 | 0.00 | 0.00 | 0.00 | 94 | 1019.9 |
| 20260506130324 | 53 | 210 | 0.0 | 0.0 | 0.00 | 0.00 | 0.00 | 94 | 1020.1 |
| 20260506125822 | 53 | 211 | 0.0 | 0.0 | 0.00 | 0.00 | 0.00 | 94 | 1020.1 |
| 20260506125320 | 53 | 216 | 0.0 | 0.9 | 0.00 | 0.00 | 0.00 | 94 | 1020.2 |
| 20260506124818 | 53 | 213 | 0.0 | 0.0 | 0.00 | 0.00 | 0.00 | 94 | 1019.9 |
| 20260506124315 | 53 | 213 | 0.0 | 0.0 | 0.00 | 0.00 | 0.00 | 94 | 1020.0 |
| 20260506123813 | 53 | 212 | 0.0 | 0.0 | 0.00 | 0.00 | 0.00 | 94 | 1020.0 |
| 20260506123311 | 53 | 212 | 0.0 | 0.0 | 0.00 | 0.00 | 0.00 | 94 | 1020.0 |
| 20260506122808 | 53 | 211 | 0.0 | 0.0 | 0.00 | 0.00 | 0.00 | 94 | 1019.8 |
| 20260506122306 | 53 | 212 | 0.0 | 0.9 | 0.00 | 0.00 | 0.00 | 94 | 1019.9 |
| 20260506121803 | 53 | 210 | 0.0 | 0.9 | 0.00 | 0.00 | 0.00 | 93 | 1019.8 |
| 20260506121259 | 53 | 213 | 0.0 | 0.0 | 0.00 | 0.00 | 0.00 | 93 | 1019.7 |
| 20260506120757 | 53 | 215 | 0.9 | 0.9 | 0.00 | 0.00 | 0.00 | 93 | 1019.9 |
| 20260506120254 | 53 | 213 | 0.0 | 0.9 | 0.00 | 0.00 | 0.00 | 92 | 1019.7 |
| 20260506115752 | 53 | 215 | 0.9 | 1.7 | 0.00 | 0.00 | 0.00 | 92 | 1019.8 |
| 20260506115250 | 53 | 212 | 0.0 | 0.0 | 0.00 | 0.00 | 0.00 | 91 | 1019.6 |
| 20260506114747 | 53 | 217 | 0.0 | 0.0 | 0.00 | 0.00 | 0.00 | 91 | 1019.6 |
| 20260506114245 | 53 | 216 | 0.0 | 1.7 | 0.00 | 0.00 | 0.00 | 91 | 1019.6 |
| 20260506113743 | 53 | 235 | 0.9 | 1.7 | 0.00 | 0.00 | 0.00 | 91 | 1019.7 |
| 20260506113240 | 54 | 213 | 0.0 | 0.9 | 0.00 | 0.00 | 0.00 | 91 | 1019.6 |
| 20260506112736 | 54 | 216 | 0.9 | 2.6 | 0.00 | 0.00 | 0.00 | 90 | 1019.6 |
| 20260506112234 | 54 | 215 | 0.9 | 2.6 | 0.00 | 0.00 | 0.00 | 90 | 1019.6 |
| 20260506111731 | 54 | 230 | 0.9 | 1.7 | 0.00 | 0.00 | 0.00 | 90 | 1019.5 |
| 20260506111230 | 54 | 217 | 1.7 | 4.3 | 0.00 | 0.00 | 0.00 | 89 | 1019.5 |
| 20260506110726 | 54 | 216 | 0.9 | 4.3 | 0.00 | 0.00 | 0.00 | 89 | 1019.6 |
| 20260506110224 | 54 | 220 | 2.6 | 2.6 | 0.00 | 0.00 | 0.00 | 89 | 1019.3 |
| 20260506105720 | 54 | 216 | 0.9 | 1.7 | 0.00 | 0.00 | 0.00 | 89 | 1019.5 |
| 20260506105217 | 54 | 222 | 0.0 | 0.0 | 0.00 | 0.00 | 0.00 | 89 | 1019.5 |
| 20260506104715 | 54 | 210 | 0.0 | 1.7 | 0.00 | 0.00 | 0.00 | 89 | 1019.3 |
| 20260506104213 | 54 | 216 | 0.9 | 1.7 | 0.00 | 0.00 | 0.00 | 89 | 1019.2 |
| 20260506103709 | 54 | 216 | 0.0 | 0.0 | 0.00 | 0.00 | 0.00 | 90 | 1019.3 |
| 20260506103206 | 54 | 218 | 0.9 | 0.9 | 0.00 | 0.00 | 0.00 | 89 | 1019.0 |
| 20260506102705 | 54 | 219 | 0.9 | 0.9 | 0.00 | 0.00 | 0.00 | 89 | 1019.3 |
| 20260506102202 | 54 | 219 | 1.7 | 2.6 | 0.00 | 0.00 | 0.00 | 89 | 1019.3 |
| 20260506101659 | 54 | 217 | 0.9 | 0.9 | 0.00 | 0.00 | 0.00 | 89 | 1019.2 |
| 20260506101155 | 54 | 217 | 0.9 | 0.9 | 0.00 | 0.00 | 0.00 | 89 | 1019.3 |
| 20260506100654 | 54 | 218 | 0.9 | 2.6 | 0.00 | 0.00 | 0.00 | 89 | 1019.3 |
| 20260506100151 | 54 | 216 | 0.9 | 0.9 | 0.00 | 0.00 | 0.00 | 89 | 1019.1 |
| 20260506095650 | 55 | 208 | 0.9 | 0.9 | 0.00 | 0.00 | 0.00 | 89 | 1018.9 |
| 20260506095146 | 55 | 213 | 0.0 | 0.9 | 0.00 | 0.00 | 0.00 | 89 | 1018.8 |
| 20260506094643 | 55 | 210 | 0.9 | 0.9 | 0.00 | 0.00 | 0.00 | 89 | 1018.7 |
| 20260506094141 | 55 | 211 | 0.9 | 2.6 | 0.00 | 0.00 | 0.00 | 88 | 1018.9 |
| 20260506093640 | 55 | 215 | 2.6 | 2.6 | 0.00 | 0.00 | 0.00 | 88 | 1018.8 |
| 20260506093136 | 55 | 227 | 0.9 | 1.7 | 0.00 | 0.00 | 0.00 | 88 | 1018.9 |
| 20260506092634 | 55 | 219 | 0.9 | 1.7 | 0.00 | 0.00 | 0.00 | 88 | 1018.8 |
| 20260506092131 | 55 | 214 | 0.0 | 1.7 | 0.00 | 0.00 | 0.00 | 88 | 1018.8 |
| 20260506091629 | 55 | 216 | 0.9 | 4.3 | 0.00 | 0.00 | 0.00 | 89 | 1018.7 |
| 20260506091126 | 55 | 218 | 0.9 | 1.7 | 0.00 | 0.00 | 0.00 | 88 | 1018.7 |
| 20260506090624 | 55 | 224 | 0.9 | 2.6 | 0.00 | 0.00 | 0.00 | 88 | 1018.7 |
| 20260506090120 | 55 | 211 | 0.0 | 1.7 | 0.00 | 0.00 | 0.00 | 88 | 1018.8 |
| 20260506085617 | 55 | 215 | 0.0 | 0.9 | 0.00 | 0.00 | 0.00 | 89 | 1018.6 |
| 20260506085114 | 55 | 209 | 0.0 | 4.3 | 0.00 | 0.00 | 0.00 | 89 | 1018.6 |
| 20260506084610 | 55 | 211 | 0.0 | 0.9 | 0.00 | 0.00 | 0.00 | 90 | 1018.6 |
| 20260506084107 | 55 | 216 | 0.0 | 0.0 | 0.00 | 0.00 | 0.00 | 90 | 1018.5 |
| 20260506083604 | 54 | 215 | 0.0 | 4.3 | 0.00 | 0.00 | 0.00 | 90 | 1018.4 |
| 20260506083102 | 54 | 210 | 0.0 | 0.0 | 0.00 | 0.00 | 0.00 | 90 | 1018.4 |
| 20260506082558 | 54 | 213 | 0.0 | 0.9 | 0.00 | 0.00 | 0.00 | 90 | 1018.4 |
| 20260506082054 | 54 | 214 | 0.0 | 0.0 | 0.00 | 0.00 | 0.00 | 90 | 1018.4 |
| 20260506081552 | 54 | 210 | 0.0 | 0.0 | 0.00 | 0.00 | 0.00 | 91 | 1018.3 |
| 20260506081049 | 54 | 211 | 0.0 | 0.9 | 0.00 | 0.00 | 0.00 | 91 | 1018.3 |
| 20260506080547 | 54 | 209 | 0.0 | 0.0 | 0.00 | 0.00 | 0.00 | 91 | 1018.4 |
| 20260506073027 | 54 | 213 | 0.0 | 0.0 | 0.00 | 0.00 | 0.00 | 91 | 1018.1 |
| 20260506072524 | 54 | 213 | 0.0 | 0.0 | 0.00 | 0.00 | 0.00 | 91 | 1018.2 |
| 20260506072022 | 54 | 213 | 0.0 | 0.0 | 0.00 | 0.00 | 0.00 | 91 | 1018.2 |
| 20260506071520 | 54 | 213 | 0.0 | 0.0 | 0.00 | 0.00 | 0.00 | 92 | 1018.1 |
| 20260506071017 | 54 | 213 | 0.0 | 0.0 | 0.00 | 0.00 | 0.00 | 91 | 1018.0 |
| 20260506070514 | 55 | 213 | 0.0 | 0.0 | 0.00 | 0.00 | 0.00 | 91 | 1018.3 |
| 20260506062451 | 56 | 213 | 0.0 | 0.9 | 0.00 | 0.00 | 0.00 | 90 | 1017.6 |
| 20260506061947 | 56 | 211 | 0.0 | 0.0 | 0.00 | 0.00 | 0.00 | 89 | 1017.6 |
| 20260506061444 | 56 | 211 | 0.0 | 0.0 | 0.00 | 0.00 | 0.00 | 89 | 1017.4 |
| 20260506060942 | 56 | 211 | 0.0 | 0.0 | 0.00 | 0.00 | 0.00 | 88 | 1017.5 |
| 20260506060440 | 57 | 211 | 0.0 | 0.0 | 0.00 | 0.00 | 0.00 | 88 | 1017.3 |
| 20260506051412 | 57 | 211 | 0.0 | 0.9 | 0.00 | 0.00 | 0.00 | 87 | 1017.1 |
| 20260506050909 | 57 | 211 | 0.0 | 2.6 | 0.00 | 0.00 | 0.00 | 87 | 1017.0 |
| 20260506050406 | 57 | 216 | 0.0 | 0.0 | 0.00 | 0.00 | 0.00 | 88 | 1016.9 |
| 20260506044857 | 57 | 216 | 0.0 | 0.0 | 0.00 | 0.00 | 0.00 | 88 | 1016.9 |
| 20260506044355 | 57 | 216 | 0.0 | 0.0 | 0.00 | 0.00 | 0.00 | 87 | 1016.8 |
| 20260506043851 | 57 | 216 | 0.0 | 0.0 | 0.00 | 0.00 | 0.00 | 87 | 1016.9 |
| 20260506043348 | 57 | 216 | 0.0 | 0.0 | 0.00 | 0.00 | 0.00 | 87 | 1016.6 |
| 20260506042847 | 57 | 216 | 0.0 | 0.0 | 0.00 | 0.00 | 0.00 | 87 | 1016.7 |
| 20260506042346 | 57 | 217 | 0.0 | 0.0 | 0.00 | 0.00 | 0.00 | 87 | 1016.9 |
| 20260506041844 | 57 | 218 | 0.0 | 0.0 | 0.00 | 0.00 | 0.00 | 87 | 1016.7 |
| 20260506041341 | 57 | 214 | 0.0 | 0.0 | 0.00 | 0.00 | 0.00 | 87 | 1016.7 |
| 20260506040837 | 57 | 213 | 0.0 | 0.9 | 0.00 | 0.00 | 0.00 | 87 | 1016.9 |
| 20260506040335 | 58 | 217 | 0.0 | 0.0 | 0.00 | 0.00 | 0.00 | 86 | 1016.7 |
| 20260506035831 | 58 | 218 | 0.0 | 0.0 | 0.00 | 0.00 | 0.00 | 86 | 1016.5 |
| 20260506035329 | 58 | 220 | 0.0 | 0.0 | 0.00 | 0.00 | 0.00 | 86 | 1016.5 |
| 20260506034826 | 58 | 220 | 0.0 | 0.0 | 0.00 | 0.00 | 0.00 | 85 | 1016.6 |
| 20260506034323 | 59 | 220 | 0.0 | 0.0 | 0.00 | 0.00 | 0.00 | 84 | 1016.5 |
| 20260506033820 | 59 | 220 | 0.0 | 0.0 | 0.00 | 0.00 | 0.00 | 83 | 1016.5 |
| 20260506033317 | 60 | 220 | 0.0 | 0.0 | 0.00 | 0.00 | 0.00 | 81 | 1016.2 |
| 20260506032813 | 60 | 220 | 0.0 | 0.0 | 0.00 | 0.00 | 0.00 | 80 | 1015.9 |
| 20260506032311 | 61 | 220 | 0.0 | 0.0 | 0.00 | 0.00 | 0.00 | 79 | 1016.2 |
| 20260506031807 | 62 | 220 | 0.0 | 0.0 | 0.00 | 0.00 | 0.00 | 78 | 1016.3 |
| 20260506031305 | 63 | 221 | 0.0 | 0.9 | 0.00 | 0.00 | 0.00 | 76 | 1016.1 |
| 20260506030802 | 63 | 221 | 0.0 | 2.6 | 0.00 | 0.00 | 0.00 | 75 | 1016.4 |
| 20260506030300 | 63 | 210 | 0.0 | 2.6 | 0.00 | 0.00 | 0.00 | 75 | 1016.2 |
| 20260506025757 | 63 | 223 | 0.9 | 1.7 | 0.00 | 0.00 | 0.00 | 75 | 1016.1 |
| 20260506025253 | 64 | 225 | 0.9 | 1.7 | 0.00 | 0.00 | 0.00 | 74 | 1016.1 |
| 20260506024750 | 64 | 229 | 0.9 | 1.7 | 0.00 | 0.00 | 0.00 | 73 | 1016.0 |
| 20260506024247 | 65 | 224 | 0.9 | 2.6 | 0.00 | 0.00 | 0.00 | 71 | 1016.1 |
| 20260506023743 | 65 | 225 | 0.9 | 1.7 | 0.00 | 0.00 | 0.00 | 72 | 1015.9 |
| 20260506023240 | 65 | 221 | 0.9 | 1.7 | 0.00 | 0.00 | 0.00 | 70 | 1016.1 |
| 20260506022737 | 66 | 234 | 1.7 | 2.6 | 0.00 | 0.00 | 0.00 | 70 | 1016.2 |
| 20260506022235 | 66 | 215 | 0.9 | 4.3 | 0.00 | 0.00 | 0.00 | 69 | 1016.0 |
| 20260506021732 | 66 | 213 | 0.9 | 2.6 | 0.00 | 0.00 | 0.00 | 69 | 1016.1 |
| 20260506021229 | 66 | 220 | 0.9 | 0.9 | 0.00 | 0.00 | 0.00 | 71 | 1016.1 |
| 20260506020726 | 66 | 232 | 2.6 | 2.6 | 0.00 | 0.00 | 0.00 | 70 | 1016.1 |
| 20260506020224 | 66 | 219 | 0.9 | 1.7 | 0.00 | 0.00 | 0.00 | 71 | 1016.2 |
| 20260506015721 | 66 | 225 | 0.9 | 2.6 | 0.00 | 0.00 | 0.00 | 70 | 1016.3 |
| 20260506015218 | 66 | 215 | 0.9 | 1.7 | 0.00 | 0.00 | 0.00 | 68 | 1016.1 |
| 20260506014710 | 67 | 218 | 0.0 | 1.7 | 0.00 | 0.00 | 0.00 | 70 | 1016.1 |
| 20260506014206 | 67 | 238 | 2.6 | 2.6 | 0.00 | 0.00 | 0.00 | 67 | 1016.0 |
| 20260506013704 | 67 | 221 | 0.0 | 1.7 | 0.00 | 0.00 | 0.00 | 69 | 1016.1 |
| 20260506013201 | 67 | 255 | 1.7 | 4.3 | 0.00 | 0.00 | 0.00 | 68 | 1016.1 |
| 20260506012657 | 67 | 222 | 1.7 | 2.6 | 0.00 | 0.00 | 0.00 | 68 | 1016.1 |
| 20260506012154 | 66 | 223 | 0.9 | 2.6 | 0.00 | 0.00 | 0.00 | 68 | 1016.1 |
| 20260506011651 | 66 | 229 | 0.9 | 1.7 | 0.00 | 0.00 | 0.00 | 69 | 1016.1 |
| 20260506011147 | 66 | 244 | 1.7 | 2.6 | 0.00 | 0.00 | 0.00 | 69 | 1016.2 |
| 20260506010646 | 65 | 230 | 0.9 | 2.6 | 0.00 | 0.00 | 0.00 | 70 | 1016.0 |
| 20260506010143 | 66 | 246 | 0.9 | 2.6 | 0.00 | 0.00 | 0.00 | 69 | 1016.1 |
| 20260506005640 | 66 | 236 | 2.6 | 4.3 | 0.00 | 0.00 | 0.00 | 69 | 1016.1 |
| 20260506005137 | 67 | 258 | 2.6 | 4.3 | 0.00 | 0.00 | 0.00 | 67 | 1016.2 |
| 20260506004632 | 67 | 241 | 0.9 | 4.3 | 0.00 | 0.00 | 0.00 | 67 | 1016.5 |
| 20260506004129 | 67 | 258 | 1.7 | 1.7 | 0.00 | 0.00 | 0.00 | 67 | 1016.3 |
| 20260506003620 | 68 | 229 | 0.9 | 2.6 | 0.00 | 0.00 | 0.00 | 68 | 1016.2 |
| 20260506003116 | 68 | 206 | 1.7 | 1.7 | 0.00 | 0.00 | 0.00 | 66 | 1016.4 |
| 20260506002613 | 68 | 225 | 0.9 | 0.9 | 0.00 | 0.00 | 0.00 | 68 | 1016.2 |
| 20260506002108 | 68 | 237 | 1.7 | 1.7 | 0.00 | 0.00 | 0.00 | 66 | 1016.2 |
| 20260506001605 | 69 | 248 | 2.6 | 2.6 | 0.00 | 0.00 | 0.00 | 64 | 1016.3 |
| 20260506001102 | 68 | 241 | 1.7 | 2.6 | 0.00 | 0.00 | 0.00 | 67 | 1016.3 |
| 20260506000600 | 68 | 232 | 1.7 | 2.6 | 0.00 | 0.00 | 0.00 | 66 | 1016.4 |
| 20260506000057 | 70 | 228 | 0.0 | 0.0 | 0.00 | 0.00 | 0.00 | 65 | 1016.4 |
| 20260505235555 | 69 | 229 | 0.0 | 1.7 | 0.00 | 0.00 | 0.00 | 64 | 1016.6 |
| 20260505235052 | 68 | 227 | 1.7 | 2.6 | 0.00 | 0.00 | 0.00 | 66 | 1016.5 |
| 20260505234548 | 65 | 219 | 0.9 | 1.7 | 0.00 | 0.00 | 0.00 | 71 | 1016.7 |
| 20260505234044 | 65 | 228 | 0.0 | 0.9 | 0.00 | 0.00 | 0.00 | 73 | 1016.8 |
| 20260505233542 | 66 | 220 | 0.9 | 1.7 | 0.00 | 0.00 | 0.00 | 73 | 1016.7 |
| 20260505233039 | 64 | 215 | 0.0 | 1.7 | 0.00 | 0.00 | 0.00 | 75 | 1016.8 |
| 20260505232537 | 64 | 221 | 0.9 | 2.6 | 0.00 | 0.00 | 0.00 | 72 | 1016.9 |
| 20260505232035 | 67 | 217 | 1.7 | 2.6 | 0.00 | 0.00 | 0.00 | 68 | 1017.1 |
| 20260505231531 | 67 | 221 | 0.9 | 2.6 | 0.00 | 0.00 | 0.00 | 70 | 1016.9 |
| 20260505231030 | 64 | 229 | 0.9 | 1.7 | 0.00 | 0.00 | 0.00 | 72 | 1016.6 |
| 20260505230527 | 64 | 225 | 0.9 | 1.7 | 0.00 | 0.00 | 0.00 | 72 | 1016.9 |
| 20260505230023 | 64 | 223 | 1.7 | 2.6 | 0.00 | 0.00 | 0.00 | 72 | 1017.1 |
| 20260505225520 | 64 | 214 | 1.7 | 2.6 | 0.00 | 0.00 | 0.00 | 73 | 1016.9 |
| 20260505225016 | 65 | 238 | 2.6 | 4.3 | 0.00 | 0.00 | 0.00 | 70 | 1017.0 |
| 20260505224514 | 64 | 271 | 0.9 | 1.7 | 0.00 | 0.00 | 0.00 | 73 | 1017.0 |
| 20260505224011 | 63 | 205 | 0.0 | 0.0 | 0.00 | 0.00 | 0.00 | 78 | 1017.2 |
| 20260505223508 | 63 | 233 | 1.7 | 1.7 | 0.00 | 0.00 | 0.00 | 75 | 1017.3 |
| 20260505223004 | 63 | 258 | 1.7 | 2.6 | 0.00 | 0.00 | 0.00 | 74 | 1017.0 |
| 20260505222500 | 62 | 226 | 0.9 | 2.6 | 0.00 | 0.00 | 0.00 | 75 | 1017.3 |
| 20260505221955 | 63 | 235 | 2.6 | 5.2 | 0.00 | 0.00 | 0.00 | 75 | 1017.1 |
| 20260505221453 | 62 | 228 | 1.7 | 2.6 | 0.00 | 0.00 | 0.00 | 75 | 1017.5 |
| 20260505220950 | 62 | 219 | 0.0 | 0.9 | 0.00 | 0.00 | 0.00 | 78 | 1017.4 |
| 20260505220447 | 62 | 228 | 1.7 | 1.7 | 0.00 | 0.00 | 0.00 | 76 | 1017.5 |
| 20260505215945 | 62 | 229 | 0.9 | 1.7 | 0.00 | 0.00 | 0.00 | 76 | 1017.4 |
| 20260505215443 | 61 | 220 | 1.7 | 2.6 | 0.00 | 0.00 | 0.00 | 77 | 1017.6 |
| 20260505214940 | 62 | 226 | 1.7 | 1.7 | 0.00 | 0.00 | 0.00 | 76 | 1017.6 |
| 20260505214438 | 62 | 234 | 1.7 | 1.7 | 0.00 | 0.00 | 0.00 | 77 | 1017.6 |
| 20260505213935 | 62 | 223 | 0.0 | 1.7 | 0.00 | 0.00 | 0.00 | 77 | 1017.5 |
| 20260505213433 | 61 | 221 | 0.9 | 1.7 | 0.00 | 0.00 | 0.00 | 77 | 1017.4 |
| 20260505212929 | 61 | 223 | 0.9 | 1.7 | 0.00 | 0.00 | 0.00 | 78 | 1017.8 |
| 20260505212426 | 60 | 220 | 0.0 | 4.3 | 0.00 | 0.00 | 0.00 | 80 | 1017.5 |
| 20260505211922 | 60 | 224 | 1.7 | 2.6 | 0.00 | 0.00 | 0.00 | 78 | 1017.3 |
| 20260505211420 | 61 | 208 | 0.9 | 2.6 | 0.00 | 0.00 | 0.00 | 78 | 1017.5 |
| 20260505210916 | 60 | 225 | 0.9 | 2.6 | 0.00 | 0.00 | 0.00 | 79 | 1017.6 |
| 20260505210413 | 60 | 225 | 0.9 | 4.3 | 0.00 | 0.00 | 0.00 | 80 | 1017.5 |
| 20260505205910 | 60 | 227 | 0.9 | 2.6 | 0.00 | 0.00 | 0.00 | 79 | 1017.7 |
| 20260505205408 | 60 | 224 | 0.0 | 1.7 | 0.00 | 0.00 | 0.00 | 80 | 1017.6 |
| 20260505204905 | 60 | 214 | 1.7 | 2.6 | 0.00 | 0.00 | 0.00 | 79 | 1017.7 |
| 20260505204403 | 60 | 242 | 2.6 | 2.6 | 0.00 | 0.00 | 0.00 | 81 | 1017.6 |
| 20260505203900 | 60 | 223 | 1.7 | 2.6 | 0.00 | 0.00 | 0.00 | 80 | 1017.9 |
| 20260505203356 | 60 | 240 | 2.6 | 2.6 | 0.00 | 0.00 | 0.00 | 81 | 1017.7 |
| 20260505202852 | 60 | 229 | 2.6 | 2.6 | 0.00 | 0.00 | 0.00 | 80 | 1017.9 |
| 20260505202349 | 59 | 214 | 2.6 | 2.6 | 0.00 | 0.00 | 0.00 | 81 | 1017.8 |
| 20260505201846 | 59 | 237 | 0.9 | 2.6 | 0.00 | 0.00 | 0.00 | 81 | 1017.9 |
| 20260505201343 | 60 | 252 | 1.7 | 2.6 | 0.00 | 0.00 | 0.00 | 80 | 1017.6 |
| 20260505200841 | 59 | 235 | 0.9 | 4.3 | 0.00 | 0.00 | 0.00 | 81 | 1017.7 |
| 20260505200338 | 59 | 215 | 1.7 | 4.3 | 0.00 | 0.00 | 0.00 | 80 | 1017.5 |
| 20260505195833 | 59 | 225 | 1.7 | 2.6 | 0.00 | 0.00 | 0.00 | 81 | 1017.5 |
| 20260505195330 | 59 | 214 | 1.7 | 4.3 | 0.00 | 0.00 | 0.00 | 81 | 1017.9 |
| 20260505194827 | 59 | 218 | 0.9 | 2.6 | 0.00 | 0.00 | 0.00 | 81 | 1017.9 |
| 20260505194325 | 59 | 215 | 0.9 | 2.6 | 0.00 | 0.00 | 0.00 | 82 | 1017.8 |
| 20260505193820 | 59 | 232 | 0.9 | 2.6 | 0.00 | 0.00 | 0.00 | 82 | 1017.8 |
| 20260505193318 | 59 | 224 | 0.0 | 4.3 | 0.00 | 0.00 | 0.00 | 82 | 1017.8 |
| 20260505192816 | 59 | 224 | 1.7 | 4.3 | 0.00 | 0.00 | 0.00 | 82 | 1017.6 |
| 20260505192314 | 59 | 214 | 0.9 | 1.7 | 0.00 | 0.00 | 0.00 | 83 | 1017.7 |
| 20260505191811 | 58 | 232 | 0.9 | 2.6 | 0.00 | 0.00 | 0.00 | 83 | 1017.6 |
| 20260505191309 | 58 | 250 | 1.7 | 2.6 | 0.00 | 0.00 | 0.00 | 83 | 1017.6 |
| 20260505190806 | 58 | 223 | 0.9 | 2.6 | 0.00 | 0.00 | 0.00 | 83 | 1017.6 |
| 20260505190301 | 58 | 221 | 0.9 | 2.6 | 0.00 | 0.00 | 0.00 | 83 | 1017.6 |
| 20260505185757 | 58 | 212 | 0.9 | 1.7 | 0.00 | 0.00 | 0.00 | 83 | 1017.7 |
| 20260505185254 | 58 | 216 | 0.9 | 2.6 | 0.00 | 0.00 | 0.00 | 84 | 1017.6 |
| 20260505184750 | 58 | 233 | 1.7 | 5.2 | 0.00 | 0.00 | 0.00 | 83 | 1017.4 |
| 20260505184247 | 58 | 239 | 0.9 | 2.6 | 0.00 | 0.00 | 0.00 | 84 | 1017.6 |
| 20260505183744 | 58 | 214 | 0.9 | 4.3 | 0.00 | 0.00 | 0.00 | 83 | 1017.3 |
| 20260505183241 | 58 | 238 | 0.0 | 0.9 | 0.00 | 0.00 | 0.00 | 85 | 1017.5 |
| 20260505182738 | 58 | 232 | 0.9 | 2.6 | 0.00 | 0.00 | 0.00 | 84 | 1017.8 |
| 20260505182235 | 58 | 244 | 2.6 | 2.6 | 0.00 | 0.00 | 0.00 | 83 | 1017.5 |
| 20260505181731 | 58 | 213 | 2.6 | 2.6 | 0.00 | 0.00 | 0.00 | 83 | 1017.4 |
| 20260505181229 | 58 | 260 | 0.9 | 1.7 | 0.00 | 0.00 | 0.00 | 84 | 1017.6 |
| 20260505180725 | 57 | 217 | 0.0 | 1.7 | 0.00 | 0.00 | 0.00 | 85 | 1017.4 |
| 20260505180222 | 57 | 223 | 0.9 | 1.7 | 0.00 | 0.00 | 0.00 | 84 | 1017.7 |
| 20260505175718 | 57 | 223 | 0.9 | 1.7 | 0.00 | 0.00 | 0.00 | 84 | 1017.6 |
| 20260505175214 | 57 | 251 | 0.0 | 1.7 | 0.00 | 0.00 | 0.00 | 85 | 1017.5 |
| 20260505174711 | 57 | 230 | 1.7 | 1.7 | 0.00 | 0.00 | 0.00 | 85 | 1017.5 |
| 20260505174208 | 57 | 213 | 0.0 | 1.7 | 0.00 | 0.00 | 0.00 | 86 | 1017.5 |
| 20260505173704 | 57 | 221 | 1.7 | 2.6 | 0.00 | 0.00 | 0.00 | 85 | 1017.4 |
| 20260505173201 | 57 | 220 | 0.9 | 2.6 | 0.00 | 0.00 | 0.00 | 85 | 1017.4 |
| 20260505172658 | 57 | 224 | 1.7 | 2.6 | 0.00 | 0.00 | 0.00 | 86 | 1017.2 |
| 20260505172155 | 57 | 221 | 0.0 | 2.6 | 0.00 | 0.00 | 0.00 | 85 | 1017.6 |
| 20260505171654 | 57 | 219 | 0.9 | 0.9 | 0.00 | 0.00 | 0.00 | 86 | 1017.4 |
| 20260505171152 | 57 | 217 | 0.0 | 2.6 | 0.00 | 0.00 | 0.00 | 86 | 1017.3 |
| 20260505170649 | 57 | 220 | 0.0 | 2.6 | 0.00 | 0.00 | 0.00 | 86 | 1017.4 |
| 20260505170146 | 57 | 210 | 1.7 | 2.6 | 0.00 | 0.00 | 0.00 | 86 | 1017.5 |
| 20260505165646 | 57 | 213 | 0.9 | 0.9 | 0.00 | 0.00 | 0.00 | 87 | 1017.4 |
| 20260505165142 | 57 | 217 | 0.9 | 2.6 | 0.00 | 0.00 | 0.00 | 86 | 1017.1 |
| 20260505164638 | 57 | 218 | 0.0 | 1.7 | 0.00 | 0.00 | 0.00 | 86 | 1017.4 |
| 20260505164136 | 57 | 216 | 0.9 | 0.9 | 0.00 | 0.00 | 0.00 | 86 | 1017.3 |
| 20260505163634 | 56 | 212 | 1.7 | 2.6 | 0.00 | 0.00 | 0.00 | 85 | 1017.1 |
| 20260505163131 | 57 | 235 | 1.7 | 2.6 | 0.00 | 0.00 | 0.00 | 86 | 1017.1 |
| 20260505162628 | 57 | 214 | 0.0 | 0.0 | 0.00 | 0.00 | 0.00 | 86 | 1017.2 |
| 20260505162127 | 56 | 215 | 0.0 | 1.7 | 0.00 | 0.00 | 0.00 | 86 | 1017.2 |
| 20260505161623 | 56 | 214 | 0.0 | 0.0 | 0.00 | 0.00 | 0.00 | 86 | 1017.3 |